Regional Weather Roundup
Issued by NWS

Home | Current Version | Previous Version | Graphics & Text | Print | Product List | Glossary On
Versions: 1 2 3 4 5 6 7 8 9 10 11 12 13 14 15 16 17 18 19 20 21 22 23 24 25 26 27 28 29 30 31 32 33 34 35 36 37 38 39 40 41 42 43 44 45 46 47 48 49 50
000
ASUS43 KFSD 201610
RWRSD

WEATHER ROUNDUP FOR SOUTH DAKOTA
NATIONAL WEATHER SERVICE SIOUX FALLS SD
1100 AM CDT WED SEP 20 2017

NOTE: "FAIR" INDICATES FEW OR NO CLOUDS BELOW 12,000 FEET WITH NO
SIGNIFICANT WEATHER AND/OR OBSTRUCTIONS TO VISIBILITY.


SDZ001>005-009-010-012>017-201700-
NORTHWEST AND NORTH CENTRAL SOUTH DAKOTA

CITY           SKY/WX    TMP DP  RH WIND       PRES   REMARKS
BUFFALO          N/A     56  37  49 SW20      29.70S
MOBRIDGE       SUNNY     60  46  59 S9        29.77S
$$

SDZ012>016-024>037-041>051-057-063-072>074-201700-
SOUTHWEST AND SOUTH CENTRAL SOUTH DAKOTA

CITY           SKY/WX    TMP DP  RH WIND       PRES   REMARKS
RAPID CTY ARPT SUNNY     57  34  41 SE9       29.83S
PIERRE         SUNNY     63  39  41 S10       29.81F
CUSTER         SUNNY     47  25  42 W16G24    29.89R
ELLSWORTH AFB  SUNNY     56  33  41 SE6       29.82R
PHILIP         SUNNY     60  40  47 W12       29.83S
SPEARFISH      FAIR      55  28  35 SW17G31   29.82R
WINNER         FAIR      64  44  48 W10       29.88R
$$

SDZ004>011-016>023-039-040-201700-
NORTHEAST SOUTH DAKOTA

CITY           SKY/WX    TMP DP  RH WIND       PRES   REMARKS
ABERDEEN       SUNNY     60  45  57 SW8       29.80R
WATERTOWN      SUNNY     60  44  55 W13       29.81R
BROOKINGS      SUNNY     60  47  61 NW12      29.83R
SISSETON         N/A     64  46  52 W13       29.77R
$$

SDZ017-020-022-023-036>040-048>070-201700-
SOUTHEAST SOUTH DAKOTA

CITY           SKY/WX    TMP DP  RH WIND       PRES   REMARKS
SIOUX FALLS    MOSUNNY   63  50  62 NW15      29.84R
HURON          SUNNY     63  44  50 W10       29.84R
CHAMBERLAIN    SUNNY     64  46  53 S9        29.87R
MITCHELL       SUNNY     63  47  55 W15       29.86R
YANKTON        SUNNY     64  50  60 NW14      29.86R
$$

ABBREVIATIONS USED IN REMARKS
   TC - TEMPERATURE IN CELSIUS
  WCI - WIND CHILL INDEX
   HX - HEAT INDEX
  VSB - VISIBILITY





USA.gov is the U.S. government's official web portal to all federal, state and local government web resources and services.